Fort Leonard Wood, MO

4:09 PM CDT on October 20, 2019 (GMT -0500)
Waynesville Regional At Forney Field

Weather History for KTBN - May, 2019

Change the Weather History Date:

Monday, May 6, 2019

  Actual Average Record
Temperature  
Mean Temperature 64 °F -  
Max Temperature 74 °F 72 °F 88 °F (2012)
Min Temperature 55 °F 54 °F 41 °F (2016)
Degree Days  
Heating Degree Days 1    
Growing Degree Days 14 (Base 50)    
Moisture  
Dew Point 54 °F    
Average Humidity 70    
Maximum Humidity 95    
Minimum Humidity 48    
Precipitation  
Precipitation 0.00 in - - ()
Sea Level Pressure  
Sea Level Pressure 29.99 in    
Wind  
Wind Speed 6 mph (SSE)    
Max Wind Speed 13 mph    
Max Gust Speed -    
Visibility 10 miles    
Events      
Averages and records for this station are not official NWS values.
T = Trace of Precipitation, MM = Missing Value Source: NWS Daily Summary

Daily Weather History Graph

Daily Weather History Graph

Search for Another Location

Airport or City:

Astronomy

May. 06, 2019 Rise Set
Actual Time 6:07 AM CDT 8:03 PM CDT
Civil Twilight 5:38 AM CDT 8:32 PM CDT
Nautical Twilight 5:04 AM CDT 9:06 PM CDT
Astronomical Twilight 4:26 AM CDT 9:44 PM CDT
Moon 7:30 AM CDT (5/6) 10:00 PM CDT (5/6)
Length of Visible Light 14h 53m
Length of Day
13h 55m
Waxing Crescent, 3% of the Moon is Illuminated
May 6
Waxing Crescent
May 11
First Quarter
May 18
Full
May 26
Last Quarter
Jun 3
New

Hourly Weather History & Observations

Time (CDT) Temp. Dew Point Humidity Pressure Visibility Wind Dir Wind Speed Gust Speed Precip Events Conditions
12:56 AM 60.3 °F 49.3 °F 67% 29.92 in 10.0 mi South 6.9 mph - N/A   Clear
1:56 AM 59.4 °F 49.1 °F 69% 29.91 in 10.0 mi South 6.9 mph - N/A   Clear
2:56 AM 59.5 °F 49.3 °F 69% 29.92 in 10.0 mi South 6.9 mph - N/A   Partly Cloudy
3:56 AM 59.7 °F 50.7 °F 72% 29.94 in 10.0 mi SSE 5.8 mph - N/A   Clear
4:56 AM 58.6 °F 51.1 °F 76% 29.92 in 10.0 mi SE 6.9 mph - N/A   Clear
5:56 AM 55.2 °F 50.7 °F 85% 29.91 in 10.0 mi SSE 4.6 mph - N/A   Partly Cloudy
7:56 AM 57.7 °F 52.9 °F 84% 29.99 in 10.0 mi South 5.8 mph - N/A   Partly Cloudy
8:56 AM 61.2 °F 54.0 °F 77% 30.00 in 10.0 mi SSW 4.6 mph - N/A   Scattered Clouds
9:56 AM 64.4 °F 54.9 °F 71% 30.01 in 10.0 mi SSW 6.9 mph - N/A   Partly Cloudy
10:56 AM 65.5 °F 54.7 °F 68% 30.03 in 10.0 mi South 9.2 mph - N/A   Mostly Cloudy
11:56 AM 66.0 °F 54.3 °F 66% 30.03 in 10.0 mi Calm Calm - N/A   Scattered Clouds
12:56 PM 70.2 °F 56.1 °F 61% 30.01 in 10.0 mi Calm Calm - N/A   Scattered Clouds
1:56 PM 72.7 °F 57.9 °F 60% 30.00 in 10.0 mi NW 3.5 mph - N/A   Partly Cloudy
2:55 PM 69.8 °F 57.2 °F 64% 29.99 in 10.0 mi Calm Calm - N/A   Light Drizzle
2:56 PM 70.2 °F 57.4 °F 64% 29.99 in 10.0 mi Calm Calm - 0.00 in   Light Drizzle
3:05 PM 69.8 °F 57.2 °F 64% 29.99 in 10.0 mi East 3.5 mph - N/A   Mostly Cloudy
3:56 PM 72.9 °F 54.7 °F 53% 29.98 in 10.0 mi ESE 12.7 mph - 0.00 in   Partly Cloudy
4:56 PM 73.9 °F 53.1 °F 48% 29.97 in 10.0 mi SE 11.5 mph - N/A   Clear
5:56 PM 71.8 °F 54.7 °F 55% 29.99 in 10.0 mi SSE 11.5 mph - N/A   Clear
6:56 PM 68.9 °F 54.9 °F 61% 29.99 in 10.0 mi SSE 11.5 mph - N/A   Clear
7:56 PM 65.3 °F 55.2 °F 70% 30.01 in 10.0 mi SSE 10.4 mph - N/A   Clear
8:56 PM 61.5 °F 55.9 °F 82% 30.03 in 10.0 mi South 6.9 mph - N/A   Clear
9:56 PM 59.2 °F 55.9 °F 89% 30.02 in 10.0 mi SSE 5.8 mph - N/A   Clear
10:56 PM 57.0 °F 54.7 °F 92% 30.03 in 10.0 mi Calm Calm - N/A   Clear
11:56 PM 57.6 °F 56.1 °F 95% 30.06 in 10.0 mi North 4.6 mph - N/A   Mostly Cloudy